Time,TemperatureF,DewpointF,PressureIn,WindDirection,WindDirectionDegrees,WindSpeedMPH,WindSpeedGustMPH,Humidity,HourlyPrecipIn,Conditions,Clouds,dailyrainin,SoftwareType,DateUTC
2013-10-11 00:13:00,58.0,57.0,-100.00,NE,48,0.0,5.0,98,0.00,,,0.54,,2013-10-11 04:13:00,
2013-10-11 00:24:00,58.0,57.0,-100.00,NE,48,0.0,5.0,98,0.00,,,0.54,,2013-10-11 04:24:00,
2013-10-11 00:53:00,58.0,57.0,-100.00,North,354,0.0,0.0,96,0.00,,,0.54,,2013-10-11 04:53:00,
2013-10-11 01:13:00,58.0,57.0,-100.00,NE,35,0.0,2.0,96,0.00,,,0.54,,2013-10-11 05:13:00,
2013-10-11 01:23:00,58.0,57.0,-100.00,NE,35,0.0,2.0,96,0.00,,,0.54,,2013-10-11 05:23:00,
2013-10-11 01:43:00,58.0,57.0,-100.00,NE,38,0.0,0.0,96,0.00,,,0.54,,2013-10-11 05:43:00,
2013-10-11 01:52:00,58.0,57.0,-100.00,NNE,17,0.0,0.0,95,0.00,,,0.54,,2013-10-11 05:52:00,
2013-10-11 02:12:00,58.0,57.0,-100.00,NNE,27,0.0,0.0,96,0.00,,,0.54,,2013-10-11 06:12:00,
2013-10-11 02:22:00,58.0,57.0,-100.00,NNE,27,0.0,0.0,96,0.00,,,0.54,,2013-10-11 06:22:00,
2013-10-11 02:43:00,58.0,57.0,-100.00,North,0,0.0,0.0,95,0.00,,,0.54,,2013-10-11 06:43:00,
2013-10-11 02:52:00,58.0,56.0,-100.00,NNE,14,0.0,0.0,95,0.00,,,0.53,,2013-10-11 06:52:00,
2013-10-11 03:02:00,58.0,56.0,-100.00,NNE,14,0.0,0.0,95,0.00,,,0.53,,2013-10-11 07:02:00,
2013-10-11 03:11:00,58.0,56.0,-100.00,NNE,14,0.0,0.0,95,0.00,,,0.53,,2013-10-11 07:11:00,
2013-10-11 03:52:00,58.0,56.0,-100.00,NNE,24,0.0,0.0,96,0.00,,,0.40,,2013-10-11 07:52:00,
2013-10-11 04:12:00,57.0,56.0,-100.00,NNE,30,0.0,4.0,97,0.00,,,0.40,,2013-10-11 08:12:00,
2013-10-11 04:22:00,57.0,56.0,-100.00,NNE,30,0.0,4.0,97,0.00,,,0.40,,2013-10-11 08:22:00,
2013-10-11 04:52:00,57.0,56.0,-100.00,NNE,16,0.0,0.0,98,0.00,,,0.40,,2013-10-11 08:52:00,
2013-10-11 05:12:00,57.0,56.0,-100.00,North,3,0.0,0.0,98,0.00,,,0.39,,2013-10-11 09:12:00,
2013-10-11 05:22:00,57.0,56.0,-100.00,North,3,0.0,0.0,98,0.00,,,0.39,,2013-10-11 09:22:00,
2013-10-11 05:43:00,57.0,56.0,-100.00,NNE,24,0.0,0.0,98,0.00,,,0.38,,2013-10-11 09:43:00,
2013-10-11 05:54:00,57.0,56.0,-100.00,North,7,0.0,0.0,98,0.00,,,0.36,,2013-10-11 09:54:00,
2013-10-11 06:12:00,57.0,56.0,-100.00,NNE,21,0.0,0.0,99,0.00,,,0.29,,2013-10-11 10:12:00,
2013-10-11 06:23:00,57.0,56.0,-100.00,NNE,21,0.0,0.0,99,0.00,,,0.29,,2013-10-11 10:23:00,
2013-10-11 06:53:00,57.0,56.0,-100.00,NNE,25,0.0,0.0,98,0.00,,,0.15,,2013-10-11 10:53:00,
2013-10-11 07:12:00,57.0,56.0,-100.00,NNE,14,0.0,0.0,97,0.00,,,0.14,,2013-10-11 11:12:00,
2013-10-11 07:22:00,57.0,56.0,-100.00,NNE,14,0.0,0.0,97,0.00,,,0.14,,2013-10-11 11:22:00,
2013-10-11 07:42:00,57.0,56.0,-100.00,NNE,27,0.0,0.0,97,0.00,,,0.13,,2013-10-11 11:42:00,
2013-10-11 07:52:00,57.0,56.0,-100.00,North,8,0.0,0.0,96,0.00,,,0.11,,2013-10-11 11:52:00,
2013-10-11 08:12:00,57.0,56.0,-100.00,NNE,13,0.0,0.0,97,0.00,,,0.08,,2013-10-11 12:12:00,
2013-10-11 08:22:00,57.0,56.0,-100.00,NNE,13,0.0,0.0,97,0.00,,,0.08,,2013-10-11 12:22:00,
2013-10-11 08:42:00,58.0,56.0,-100.00,North,0,0.0,0.0,94,0.00,,,0.04,,2013-10-11 12:42:00,
2013-10-11 08:52:00,58.0,55.0,-100.00,North,0,0.0,0.0,89,0.00,,,0.00,,2013-10-11 12:52:00,
2013-10-11 09:12:00,59.0,55.0,-100.00,NNE,13,0.0,0.0,88,0.00,,,0.00,,2013-10-11 13:12:00,
2013-10-11 09:22:00,59.0,55.0,-100.00,NNE,13,0.0,0.0,88,0.00,,,0.00,,2013-10-11 13:22:00,
2013-10-11 09:53:00,60.0,56.0,-100.00,NNE,17,0.0,0.0,86,0.00,,,0.00,,2013-10-11 13:53:00,
2013-10-11 10:11:00,61.0,56.0,-100.00,North,1,0.0,1.0,83,0.00,,,0.00,,2013-10-11 14:11:00,
2013-10-11 10:22:00,61.0,56.0,-100.00,NNE,14,0.0,0.0,83,0.00,,,0.00,,2013-10-11 14:22:00,
2013-10-11 10:32:00,61.0,56.0,-100.00,NNE,14,0.0,0.0,83,0.00,,,0.00,,2013-10-11 14:32:00,
2013-10-11 10:52:00,62.0,56.0,-100.00,NNE,13,6.0,10.0,81,0.00,,,0.00,,2013-10-11 14:52:00,
2013-10-11 11:11:00,63.0,57.0,-100.00,NNE,14,6.0,8.0,80,0.00,,,0.00,,2013-10-11 15:11:00,
2013-10-11 11:22:00,64.0,56.0,-100.00,North,3,7.0,9.0,77,0.00,,,0.00,,2013-10-11 15:22:00,
2013-10-11 11:34:00,64.0,56.0,-100.00,North,3,7.0,9.0,77,0.00,,,0.00,,2013-10-11 15:34:00,
2013-10-11 11:54:00,64.0,57.0,-100.00,NE,41,7.0,9.0,76,0.00,,,0.00,,2013-10-11 15:54:00,
2013-10-11 12:13:00,65.0,57.0,-100.00,North,11,6.0,8.0,75,0.00,,,0.00,,2013-10-11 16:13:00,
2013-10-11 12:22:00,65.0,57.0,-100.00,North,11,6.0,8.0,75,0.00,,,0.00,,2013-10-11 16:22:00,
2013-10-11 12:53:00,67.0,58.0,-100.00,NNE,14,4.0,6.0,73,0.00,,,0.00,,2013-10-11 16:53:00,
2013-10-11 13:12:00,68.0,58.0,-100.00,North,3,8.0,11.0,70,0.00,,,0.00,,2013-10-11 17:12:00,
2013-10-11 13:22:00,68.0,58.0,-100.00,North,3,8.0,11.0,70,0.00,,,0.00,,2013-10-11 17:22:00,
2013-10-11 13:53:00,71.0,61.0,-100.00,NE,47,0.0,0.0,70,0.00,,,0.00,,2013-10-11 17:53:00,
2013-10-11 14:12:00,71.0,60.0,-100.00,NNE,23,5.0,7.0,70,0.00,,,0.00,,2013-10-11 18:12:00,
2013-10-11 14:22:00,71.0,60.0,-100.00,NNE,23,5.0,7.0,70,0.00,,,0.00,,2013-10-11 18:22:00,
2013-10-11 14:43:00,71.0,60.0,-100.00,NNE,32,6.0,8.0,68,0.00,,,0.00,,2013-10-11 18:43:00,
2013-10-11 14:52:00,72.0,60.0,-100.00,NNE,24,6.0,9.0,68,0.00,,,0.00,,2013-10-11 18:52:00,
2013-10-11 15:02:00,72.0,60.0,-100.00,NNE,24,6.0,9.0,68,0.00,,,0.00,,2013-10-11 19:02:00,
2013-10-11 15:11:00,72.0,60.0,-100.00,NNE,24,6.0,9.0,68,0.00,,,0.00,,2013-10-11 19:11:00,
2013-10-11 15:52:00,71.0,60.0,-100.00,NNE,30,7.0,9.0,69,0.00,,,0.00,,2013-10-11 19:52:00,
2013-10-11 16:12:00,71.0,60.0,-100.00,NNE,13,6.0,7.0,69,0.00,,,0.00,,2013-10-11 20:12:00,
2013-10-11 16:22:00,71.0,60.0,-100.00,NNE,13,6.0,7.0,69,0.00,,,0.00,,2013-10-11 20:22:00,
2013-10-11 17:12:00,69.0,62.0,-100.00,NW,311,0.0,0.0,79,0.00,,,0.00,,2013-10-11 21:12:00,
2013-10-11 17:22:00,69.0,62.0,-100.00,NW,311,0.0,0.0,79,0.00,,,0.00,,2013-10-11 21:22:00,
2013-10-11 17:55:00,69.0,63.0,-100.00,North,10,0.0,0.0,81,0.00,,,0.00,,2013-10-11 21:55:00,
2013-10-11 18:13:00,68.0,63.0,-100.00,WNW,296,0.0,0.0,83,0.00,,,0.00,,2013-10-11 22:13:00,
2013-10-11 18:24:00,67.0,63.0,-100.00,NW,319,0.0,0.0,85,0.00,,,0.00,,2013-10-11 22:24:00,
2013-10-11 18:33:00,67.0,63.0,-100.00,NW,319,0.0,0.0,85,0.00,,,0.00,,2013-10-11 22:33:00,
2013-10-11 18:43:00,67.0,63.0,-100.00,NW,319,0.0,0.0,85,0.00,,,0.00,,2013-10-11 22:43:00,
2013-10-11 18:53:00,67.0,63.0,-100.00,NW,323,0.0,0.0,86,0.00,,,0.00,,2013-10-11 22:53:00,
2013-10-11 19:12:00,67.0,59.0,-100.00,North,349,8.0,11.0,74,0.00,,,0.00,,2013-10-11 23:12:00,
2013-10-11 19:22:00,67.0,59.0,-100.00,North,349,8.0,11.0,74,0.00,,,0.00,,2013-10-11 23:22:00,
2013-10-11 19:42:00,67.0,58.0,-100.00,North,352,8.0,12.0,74,0.00,,,0.00,,2013-10-11 23:42:00,
2013-10-11 19:53:00,66.0,59.0,-100.00,NNW,328,6.0,9.0,76,0.00,,,0.00,,2013-10-11 23:53:00,
2013-10-11 20:12:00,66.0,59.0,-100.00,NNW,336,4.0,5.0,78,0.00,,,0.00,,2013-10-12 00:12:00,
2013-10-11 20:22:00,66.0,59.0,-100.00,NNW,336,4.0,5.0,78,0.00,,,0.00,,2013-10-12 00:22:00,
2013-10-11 20:52:00,65.0,59.0,-100.00,NNW,340,1.0,4.0,80,0.00,,,0.00,,2013-10-12 00:52:00,
2013-10-11 20:53:00,65.0,58.0,-100.00,North,10,5.0,8.0,78,0.00,,,0.00,,2013-10-12 00:53:00,
2013-10-11 21:11:00,65.0,58.0,-100.00,North,357,4.0,6.0,79,0.00,,,0.00,,2013-10-12 01:11:00,
2013-10-11 21:22:00,65.0,58.0,-100.00,North,357,4.0,6.0,79,0.00,,,0.00,,2013-10-12 01:22:00,
2013-10-11 21:42:00,65.0,59.0,-100.00,NNW,340,1.0,4.0,80,0.00,,,0.00,,2013-10-12 01:42:00,
2013-10-11 22:12:00,63.0,59.0,-100.00,NNE,28,0.0,0.0,88,0.00,,,0.00,,2013-10-12 02:12:00,
2013-10-11 22:23:00,63.0,59.0,-100.00,NNE,28,0.0,0.0,88,0.00,,,0.00,,2013-10-12 02:23:00,
2013-10-11 22:52:00,62.0,59.0,-100.00,NE,54,0.0,0.0,90,0.00,,,0.00,,2013-10-12 02:52:00,
2013-10-11 23:12:00,62.0,59.0,-100.00,NNE,21,0.0,0.0,91,0.00,,,0.00,,2013-10-12 03:12:00,
2013-10-11 23:23:00,62.0,59.0,-100.00,NNE,21,0.0,0.0,91,0.00,,,0.00,,2013-10-12 03:23:00,
2013-10-11 23:54:00,61.0,58.0,-100.00,NE,42,0.0,0.0,92,0.00,,,0.00,,2013-10-12 03:54:00,